Location: Albany
(35.0000°S, 118.0000°E)
Time: 07:32:36
(UTC-05:00)

Cosmos 1626 - Visible Passes

Search period start: 26 November 2014 00:00
Search period end: 06 December 2014 00:00
Orbit: 513 x 518 km, 82.5° (Epoch: 25 November)

Date Brightness Start Highest point End Pass type
(mag) Time Alt. Az. Time Alt. Az. Time Alt. Az.
26 Nov 4.7 12:16:24 10° SSE 12:18:34 19° ESE 12:18:34 19° ESE visible
26 Nov 4.2 13:52:03 10° SW 13:53:33 17° WSW 13:53:33 17° WSW visible
27 Nov 4.9 12:01:43 10° SSE 12:03:22 16° ESE 12:03:22 16° ESE visible
27 Nov 4.2 13:36:46 10° SW 13:38:21 19° SW 13:38:21 19° SW visible
28 Nov 5.1 11:47:08 10° SE 11:48:11 13° ESE 11:48:11 13° ESE visible
28 Nov 4.1 13:21:32 10° SSW 13:23:10 20° SW 13:23:10 20° SW visible
29 Nov 5.3 11:32:51 10° SE 11:33:00 10° ESE 11:33:00 10° ESE visible
29 Nov 4.1 13:06:20 10° SSW 13:07:59 22° SW 13:07:59 22° SW visible
30 Nov 4.2 12:51:10 10° SSW 12:52:49 23° SSW 12:52:49 23° SSW visible
01 Dec 4.3 12:36:01 10° SSW 12:37:38 23° SSW 12:37:38 23° SSW visible
02 Dec 4.4 12:20:53 10° S 12:22:28 23° SSW 12:22:28 23° SSW visible
03 Dec 4.5 12:05:46 10° S 12:07:19 23° S 12:07:19 23° S visible
04 Dec 4.6 11:50:39 10° S 11:52:09 22° S 11:52:09 22° S visible
05 Dec 4.7 11:35:34 10° S 11:36:59 21° SSE 11:36:59 21° SSE visible
